Location: Hokitika
(42.7170°S, 170.9670°E)
Time: 23:21:01
(UTC+12:00)

Daily predictions for brighter satellites

Satellite Brightness Start Highest point End
(mag) Time Altitude Azimuth Time Altitude Azimuth Time Altitude Azimuth
Cosmos 1953 Rocket 3.6 17:49:11 10° N 17:53:37 68° E 17:58:10 10° SSE
Cosmos 1825 Rocket 3.8 17:49:12 10° N 17:53:39 79° W 17:58:08 10° S
Nadezhda 4 Rocket 4.0 17:48:07 10° N 17:54:12 69° E 18:00:26 10° SSE
Cosmos 1092 Rocket 4.4 17:49:24 10° NNE 17:55:11 42° E 18:01:04 10° SSE
Cosmos 2058 3.5 17:56:32 10° NNE 18:00:19 35° E 18:04:10 10° SSE
SMAP 4.3 17:58:04 10° SE 18:01:40 21° E 18:05:14 10° NE
Atlas Centaur 2 3.9 17:58:01 10° NW 18:02:15 24° N 18:07:17 10° ENE
Cosmos-2242 3.9 17:58:29 10° SSW 18:02:49 55° W 18:07:05 10° N
Cosmos 1486 Rocket 4.1 17:57:42 10° SSW 18:03:02 86° WNW 18:08:21 10° NNE
Cosmos 2026 Rocket 4.5 17:59:08 10° NNE 18:05:02 40° E 18:10:58 10° SSE
COSMO-SKYMED 1 3.1 18:00:49 10° N 18:05:10 66° WNW 18:09:35 10° SSW
CENTAUR R/B 3.9 17:58:52 10° WNW 18:06:23 42° SW 18:12:50 10° SSE
Cosmos 1992 Rocket 4.1 18:01:13 10° NNW 18:06:29 86° WSW 18:11:49 10° SSE
H-2A R/B 3.1 18:03:07 10° N 18:07:11 50° W 18:11:15 10° SSW
CZ-2C R/B 3.0 18:01:48 10° NE 18:07:15 51° ESE 18:12:42 10° S
ADEOS 4.2 18:04:15 10° S 18:09:29 61° WSW 18:14:39 10° NNW
USA 234 3.3 18:03:35 10° SE 18:10:13 74° NE 18:16:47 10° NW
Cosmos 1825 2.3 18:06:36 10° N 18:10:17 52° E 18:14:02 10° SSE
Cosmos 1408 2.8 18:10:02 10° NNW 18:13:45 76° W 18:17:33 10° S
Cosmos 1842 Rocket 4.0 18:09:44 10° S 18:14:01 42° ESE 18:18:17 10° NNE
Cosmos 1980 4.3 18:10:37 10° N 18:15:49 38° ENE 18:21:03 10° SE
Cosmos 405 Rocket 3.2 18:12:31 10° NNE 18:16:00 38° E 18:19:35 10° SSE
NOAA 6 4.5 18:14:00 10° SSE 18:18:54 40° E 18:23:43 10° NNE
Envisat 3.1 18:13:54 10° SSE 18:19:06 88° WSW 18:24:12 10° NNW
Cosmos 1356 3.5 18:22:15 10° N 18:25:36 54° E 18:29:01 10° SSE
IRIDIUM 106 4.3 18:20:19 10° S 18:25:38 72° E 18:30:52 10° N
Cosmos 1437 Rocket 3.5 18:23:43 10° S 18:27:08 30° ESE 18:30:30 10° NE
SL-16 R/B 3.7 18:24:54 10° NE 18:27:59 15° E 18:28:38 15° E
Cosmos 2221 2.5 18:25:19 10° S 18:29:38 63° E 18:33:54 10° NNE
CZ-4B DEB 4.5 18:24:42 10° SSE 18:30:03 46° E 18:35:18 10° N
CZ-4B R/B 2.0 18:27:54 10° N 18:30:53 55° WNW 18:33:59 10° SSW
Cosmos 1606 3.3 18:30:41 10° S 18:34:13 34° ESE 18:37:42 10° NE
SL-8 R/B 3.8 18:30:33 10° NW 18:35:23 68° NNE 18:38:38 21° ESE
Cosmos 1689 Rocket 2.5 18:33:27 10° NE 18:36:08 36° ESE 18:38:52 10° S
ATLAS 3B R/B 2.9 18:30:37 10° NNW 18:38:07 76° ENE 18:45:30 10° SE
Meteor 2-15 Rocket 4.4 18:35:26 10° S 18:41:35 68° E 18:47:40 10° NNE
Cosmos 2333 Rocket 3.5 18:38:48 10° NW 18:44:03 38° WSW 18:49:23 10° S
PSLV R/B 4.0 18:40:10 10° NNE 18:44:21 84° WNW 18:48:33 10° SSW
YAOGAN 6 4.4 18:43:47 10° S 18:47:00 32° WSW 18:50:12 10° NW
Cosmos 1461 3.8 18:45:21 10° SSW 18:49:14 31° SE 18:50:14 28° ESE
Cosmos 1076 Rocket 3.4 18:46:00 10° N 18:50:15 65° E 18:54:36 10° SSE
Cosmos 1553 Rocket 4.0 18:45:46 10° S 18:51:48 52° ESE 18:57:43 10° NNE
Cosmos 1777 Rocket 4.0 18:47:32 10° SSW 18:52:50 61° ESE 18:58:01 10° NNE
Genesis I 3.4 18:52:47 10° NW 18:56:45 73° SW 18:59:05 23° SSE
Cosmos 2237 Rocket 2.1 18:52:20 10° NNW 18:58:00 79° ENE 19:03:17 13° SSE
PSLV R/B 3.8 18:54:53 10° S 18:58:45 79° WSW 19:02:29 10° NNW
deb Chang Zheng 4 4.2 18:54:35 10° S 18:58:55 57° WSW 19:03:11 10° NNW
Cosmos 2098 Rocket 4.3 18:56:27 10° NW 18:59:27 29° W 19:02:11 10° SSW
CZ-2C R/B 3.1 18:59:03 18° SSE 19:02:21 45° E 19:06:55 10° N
CORIOLIS 4.1 18:58:03 10° SSE 19:03:34 69° ENE 19:09:01 10° N
Cosmos 2151 3.1 19:00:03 10° NNE 19:04:08 49° E 19:05:44 32° SE
ERS-2 2.0 19:03:01 10° NNE 19:06:41 72° ESE 19:10:24 10° S
SJ 16-02 2.1 19:03:02 10° S 19:06:30 34° SE 19:06:30 34° SE
Okean O Rocket 1.8 19:06:03 33° SE 19:07:38 48° E 19:11:58 10° N
NOAA 12 4.2 19:02:39 10° S 19:08:04 79° WSW 19:13:23 10° NNW
BREEZE-M DEB 2.8 19:06:45 10° W 19:09:25 39° SW 19:09:25 39° SW
ATLAS CENTAUR R/B 3.4 19:08:58 10° S 19:10:37 16° SSE 19:10:37 16° SSE
Cosmos 1633 2.3 19:09:50 10° N 19:13:25 81° E 19:14:15 51° SSE
Cosmos 1943 Rocket 3.4 19:12:16 10° S 19:15:54 25° SE 19:15:54 25° SE
USA 102 4.4 19:13:31 10° NNE 19:11:41 - NNE 19:20:36 48° NW
Cosmos 1655 Rocket 4.0 19:14:52 10° NNE 19:21:01 57° E 19:27:19 10° SSE
Cosmos 2278 Rocket 2.7 19:16:47 10° SSW 19:22:26 61° WNW 19:28:01 10° N
SAR-Lupe-4 4.2 19:18:55 10° N 19:22:29 57° WNW 19:26:06 10° SSW
Cosmos 1939 Rocket 3.0 19:23:02 22° S 19:25:43 78° WSW 19:29:53 10° NNW
Cosmos 2292 Rocket 3.8 19:22:28 10° N 19:26:33 81° W 19:32:08 10° S
Meteor 2-3 Rocket 3.7 19:21:13 10° N 19:26:44 60° E 19:29:42 28° SSE
Cosmos 2369 Rocket 4.1 19:24:17 10° S 19:25:49 15° SSE 19:25:49 15° SSE
CZ-4B R/B 3.0 19:24:11 10° SSE 19:29:32 84° ENE 19:34:52 10° NNW
H-2A R/B 2.9 19:33:35 45° N 19:33:35 45° N 19:36:20 10° NNW
Meteor 2-16 Rocket 4.5 19:27:15 10° NNE 19:33:09 52° E 19:33:55 49° ESE
Lacrosse 5 2.0 19:29:44 10° SW 19:34:45 58° SE 19:34:45 58° SE
Cosmos 2219 Rocket 4.5 19:32:13 10° W 19:36:11 19° SW 19:40:10 10° S
SMAP 4.3 19:34:43 10° S 19:39:10 41° WSW 19:43:34 10° NW
Meteor 2-21 Rocket 4.3 19:33:24 10° N 19:39:36 71° E 19:45:53 10° SSE
Atlas Centaur 2 4.1 19:45:50 10° WNW 19:50:38 24° N 19:52:48 21° NNE
USA 234 4.1 19:50:02 28° SSE 19:52:56 42° SSW 19:59:02 10° W
Cosmos 883 Rocket 4.4 19:50:49 10° S 19:56:25 67° SE 19:56:25 67° SE
Cosmos 1867 4.4 19:53:29 10° SSW 19:57:04 40° S 19:57:04 40° S
SL-16 R/B 2.4 20:05:40 10° NNW 20:10:35 66° NW 20:10:35 66° NW
Cosmos 2266 Rocket 4.2 20:08:36 10° NNW 20:14:37 66° W 20:20:48 10° S
BREEZE-M DEB (TANK) 4.4 20:07:45 10° W 20:14:26 45° SW 20:14:26 45° SW
ATLAS 3B R/B 4.3 20:23:02 10° W 20:29:33 31° SW 20:32:46 23° S
Okean O Rocket 4.2 20:43:31 18° WSW 20:43:36 18° WSW 20:46:41 10° WNW
SJ 16-02 4.1 20:42:07 10° SW 20:43:33 16° WSW 20:43:33 16° WSW
Cosmos 1943 Rocket 4.3 20:55:32 10° SW 20:57:28 21° SW 20:57:28 21° SW
